Weather in Savinskiy

Russia / Arkhangel'skaya Oblast'     62°55′55″N   40°08′16″E
temp.,
°C
wind,
m/s
gust,
m/s
humid.,
%
clouds,
%
prec.,
mm/h
press.,
hPa
HPBL,
m
17 april, sat
sat1700:000nnw11945 0.0 103410
03:00−1wnw11946 0.0 103410
06:000w23897 0.0 103464
09:00+6w35665 0.0 1034385
12:00+9wnw35536 0.0 1033965
15:00+10nw35535 0.0 10321224
18:00+8nw35695 0.0 1031364
21:00+3nw27905 0.0 1032146
18 april, sun
sun1800:00+2n25905 0.0 103292
03:00+1nne279410 0.0 1034161
06:00+1ne269570 0.0 1034221
09:00+3ene348195 0.0 1035620
12:00+6ene33547 0.0 10351092
15:00+7ene34455 0.0 10351271
18:00+6ene24470 0.0 1035678
21:00+1e22650 0.0 103630
19 april, mon
mon1900:000e22691 0.0 103714
03:00−1ese11695 0.0 103710
06:000se126633 0.0 103756
09:00+5se234518 0.0 1037612
12:00+8sse223657 0.0 10361233
15:00+8se1235100 0.0 10351311
18:00+8ese114786 0.0 103418
21:00+3se22625 0.0 103410
20 april, tue
tue2000:00+1sse11684 0.0 103410
03:000s11730 0.0 103410
06:00+1s13700 0.0 103481
09:00+6sse24480 0.0 1033550
12:00+9sse34370 0.0 10311341
15:00+11sse35330 0.0 10291532
18:00+9se36415 0.0 1027592
21:00+4ese266260 0.0 1026106
21 april, wed
wed2100:00+3ese296980 0.0 1025185
03:00+2ese31171100 0.0 1024264
06:00+2ese41368100 0.0 1020436
09:00+5ese51453100 0.0 1017669
12:00+9ese61347100 0.0 10141035
15:00+7se61566100 0.3 10121288
18:00+5se61487100 1.0 10101168
21:00+5se51389100 1.2 1009999